This is the latest recevied weather packets stored in our database for station/object K7LDN-13. If no packets are shown the sender has not sent any weather packets the latest 10 day(s).
| Time | Temp. | Humidity | Pressure | Rain* | Wind** | Luminosity | Snow |
|---|---|---|---|---|---|---|---|
| 1777767092 | 22.78° C | 15% | 1018.5 hPa | 0 mm | - | 124 W/m² | - |
| 1777764970 | 23.89° C | 13% | 1018.8 hPa | 0 mm | - | 402 W/m² | - |
| 1777764667 | 23.33° C | 14% | 1018.7 hPa | 0 mm | - | 419 W/m² | - |
| 1777764363 | 23.33° C | 14% | 1018.9 hPa | 0 mm | - | 450 W/m² | - |
| 1777764061 | 23.33° C | 15% | 1018.9 hPa | 0 mm | - | 473 W/m² | - |
| 1777761335 | 22.78° C | 16% | 1019.6 hPa | 0 mm | - | 297 W/m² | - |
| 1777761033 | 22.78° C | 15% | 1019.6 hPa | 0 mm | - | 384 W/m² | - |
| 1777760730 | 22.78° C | 16% | 1019.7 hPa | 0 mm | - | 500 W/m² | - |
| 1777760426 | 22.78° C | 17% | 1019.6 hPa | 0 mm | - | 499 W/m² | - |
| 1777760122 | 22.78° C | 15% | 1019.7 hPa | 0 mm | - | 463 W/m² | - |
| 1777759820 | 22.78° C | 15% | 1019.9 hPa | 0 mm | - | 549 W/m² | - |
| 1777759515 | 22.22° C | 15% | 1020.1 hPa | 0 mm | - | 548 W/m² | - |
| 1777758910 | 22.78° C | 15% | 1020.1 hPa | 0 mm | - | 395 W/m² | - |
| 1777758606 | 22.22° C | 12% | 1020.4 hPa | 0 mm | - | 488 W/m² | - |
| 1777757696 | 22.78° C | 12% | 1020.8 hPa | 0 mm | - | 664 W/m² | - |
| 1777757395 | 22.78° C | 15% | 1020.8 hPa | 0 mm | - | 704 W/m² | - |
| 1777757093 | 22.78° C | 14% | 1020.6 hPa | 0 mm | - | 738 W/m² | - |
| 1777756790 | 22.78° C | 12% | 1021.1 hPa | 0 mm | - | 724 W/m² | - |
| 1777756486 | 22.78° C | 14% | 1021.1 hPa | 0 mm | - | 758 W/m² | - |
| 1777756184 | 22.22° C | 15% | 1021.2 hPa | 0 mm | - | 775 W/m² | - |
| 1777755880 | 22.22° C | 16% | 1021.3 hPa | 0 mm | - | 774 W/m² | - |
| 1777755578 | 22.22° C | 15% | 1021.4 hPa | 0 mm | - | 796 W/m² | - |
| 1777755274 | 21.67° C | 13% | 1021.3 hPa | 0 mm | - | 802 W/m² | - |
| 1777754971 | 22.22° C | 15% | 1021.3 hPa | 0 mm | - | 831 W/m² | - |
| 1777753759 | 21.67° C | 16% | 1021.6 hPa | 0 mm | - | 802 W/m² | - |
* Rain latest hour (hover to see other rain measurements)
** Current wind speed in m/s (hover to see current wind gust speed)